Location: Newark
(48.1500°N, 13.1167°E)
Time: 13:47:33
(UTC+00:00)

ISS - Pass Details

Date: 19 September 2021
Orbit: 417 x 423 km, 51.6° (Epoch: 28 October)

Event Time Altitude Azimuth Distance (km) Brightness Sun altitude
Rises 19:35:30 0° 261° (W) 2,362 0.8 -23.6°
Reaches altitude 10° 19:37:37 10° 265° (W) 1,500 -0.3 -23.9°
Enters shadow 19:39:55 37° 286° (WNW) 665 -2.3 -24.3°
